SCP
1 1 1 2 2 2 3 3 3 2 2 2 2 2 2 2 2 3 3 2 2 2 2 1 1 2 2 2 2 2 3 3 3 3 2 2 2 2 2 2 1 1 1
2 2 2 2 2 3 3 3 3 3 2 2 2 3 2 2 2 3 3 2 2 2 2 2 1 1 2 2 2 2 2 3 3 3 3 2 2 2 1 1 1 1 1
2 2 3 3 3 4 4 4 4 4 3 2 2 2 3 3 3 3 2 2 2 2 2 2 2 1 1 2 2 2 2 2 2 2 3 3 2 2 2 1 1 1 1
2 3 3 4 4 4 5 5 6 5 4 3 2 2 2 3 3 2 2 2 2 2 2 2 2 2 1 2 2 2 2 2 2 2 2 3 3 3 2 2 2 1 1
2 2 3 4 4 4 5 7 7 7 5 3 3 2 2 2 2 2 2 3 3 3 2 2 2 2 2 2 2 2 2 2 2 2 2 3 3 3 3 3 2 2 1
2 2 3 4 4 4 5 6 8 8 6 4 3 3 3 3 2 2 2 3 3 4 4 4 4 3 2 2 2 3 2 2 2 2 2 3 3 3 3 4 3 2 1
2 2 3 5 5 5 5 6 8 9 8 6 4 4 4 3 3 3 3 4 5 5 6 6 6 5 3 3 3 3 3 3 3 3 3 3 3 3 4 4 3 2 2
2 2 4 5 6 6 6 6 7 9 10 8 6 5 4 4 4 4 5 6 6 7 8 8 7 6 4 4 3 3 3 3 3 3 3 3 3 4 3 3 3 2 2
2 2 3 5 6 7 8 7 7 9 10 10 8 6 5 5 5 6 7 8 9 10 11 10 7 6 5 5 5 4 4 4 4 4 4 4 3 3 3 2 2 2 2
1 2 3 4 5 7 8 8 8 9 10 10 10 8 7 6 7 8 9 10 12 14 14 11 7 5 4 5 5 5 5 5 5 5 5 5 4 3 3 2 2 3 3
1 2 3 4 6 8 9 10 10 10 10 10 11 10 9 8 8 9 11 12 15 17 16 11 7 5 4 4 4 5 5 5 5 6 7 7 5 4 4 3 3 3 3
1 2 3 5 7 8 9 11 13 12 10 10 11 12 11 9 8 9 11 14 16 17 16 12 8 5 4 4 4 4 5 5 5 6 7 8 7 6 6 5 4 3 3
2 2 4 5 8 9 10 12 13 12 10 10 11 12 12 11 11 12 13 15 17 18 18 15 10 6 5 4 4 5 5 6 6 6 7 7 7 7 7 6 5 4 3
4 4 5 6 8 9 10 10 11 11 11 13 15 17 17 17 18 18 18 18 18 20 21 19 13 8 6 5 5 6 7 7 6 6 6 6 6 6 7 7 6 5 4
6 6 7 7 7 8 9 9 9 10 12 15 19 22 22 22 21 19 18 18 19 20 21 19 14 9 6 5 5 6 7 7 6 5 5 5 5 5 6 7 7 6 6
7 7 6 6 7 8 9 9 8 8 10 12 16 19 19 18 16 15 15 16 17 17 18 16 12 8 5 3 3 4 5 6 6 6 6 6 5 4 4 5 5 5 5
6 6 5 6 7 9 10 10 9 9 9 10 12 15 15 14 12 12 15 15 14 13 13 12 10 6 4 3 3 3 4 4 5 7 7 6 4 3 3 3 3 4 4
7 6 5 6 7 10 11 10 10 11 12 14 16 18 17 13 11 12 14 13 11 9 9 9 7 5 4 3 3 3 4 4 5 6 6 5 3 3 2 2 3 3 3
10 9 8 8 11 14 13 12 11 12 14 16 17 17 15 12 11 12 12 11 9 8 7 7 6 5 5 4 3 3 4 5 5 4 4 4 4 3 2 2 3 3 3
11 11 11 12 16 18 16 13 11 10 10 11 11 12 11 10 10 11 10 10 8 7 7 6 6 6 6 4 3 2 4 5 4 4 4 4 4 3 2 2 2 3 3
8 9 11 14 17 18 15 12 9 8 7 7 7 8 8 8 8 9 10 10 9 8 7 6 6 7 6 4 3 2 2 3 3 4 4 4 3 2 1 1 2 2 2
5 6 9 13 16 16 12 10 8 8 8 8 8 8 8 7 7 8 10 10 9 8 7 7 7 7 6 4 3 2 1 2 3 4 4 3 2 1 0 1 1 1 1
4 5 8 12 15 13 10 9 9 10 10 10 10 9 9 8 8 8 9 9 8 7 7 7 6 6 6 5 4 3 1 1 2 3 3 3 2 1 0 1 1 1 1
8 8 9 14 15 13 10 10 11 11 12 12 11 11 10 9 8 8 8 7 7 7 7 6 6 6 5 5 5 4 2 1 1 2 2 2 2 1 1 1 1 1 1
11 11 13 18 19 15 12 11 12 12 12 11 11 11 10 9 8 8 7 7 6 5 5 5 5 5 4 4 4 4 3 2 1 1 1 3 3 3 3 2 2 2 2
10 10 15 20 22 18 13 12 11 12 11 10 10 9 9 9 9 8 7 6 5 4 3 3 4 4 4 3 3 3 4 3 1 1 1 2 4 5 4 3 3 3 3
Wind_Speed
11 10 9 9 9 7 6 5 3 3 2 1 1 1 1 1 1 2 3 2 1 1 1 1 1 1 2 2 2 2 2 2 2 2 2 1 2 2 2 2 1 2 2
11 10 10 9 9 8 7 6 4 3 3 1 1 1 1 1 2 1 2 2 1 1 1 1 1 1 1 2 1 2 1 1 1 2 2 1 1 1 2 2 2 2 2
12 12 11 10 10 9 8 6 5 4 3 3 2 1 1 1 1 2 2 2 1 1 2 2 1 1 1 2 1 1 1 1 1 1 1 1 1 1 1 1 1 2 2
13 13 12 11 10 10 9 7 6 4 4 3 2 2 2 1 1 1 2 2 1 1 2 2 1 1 1 2 1 2 0 1 1 0 1 1 2 2 1 0 1 1 1
14 14 13 11 10 10 10 9 7 5 4 3 2 2 1 1 1 1 2 2 2 1 2 2 1 1 1 1 1 1 0 0 1 0 1 1 0 1 2 1 1 0 1
13 13 13 11 10 10 10 10 8 6 5 5 4 2 2 1 1 1 1 2 2 1 1 2 1 1 1 1 1 1 1 1 1 0 0 1 1 1 1 2 2 1 0
12 13 14 13 11 10 10 10 9 7 6 5 5 4 3 3 2 1 1 1 1 1 2 1 1 1 1 1 1 1 1 1 1 1 1 1 1 1 2 2 2 1 0
11 12 13 13 12 11 10 10 10 8 7 6 5 4 4 3 2 2 2 1 1 1 2 2 1 1 1 1 1 2 2 2 1 2 1 1 1 1 1 2 2 2 1
10 11 13 12 12 12 11 11 10 9 8 7 5 5 4 3 2 2 2 1 0 1 2 2 1 1 1 1 2 1 2 2 2 2 2 1 1 1 1 2 2 2 2
10 10 10 10 10 11 11 11 11 9 8 7 7 6 5 4 3 2 1 1 1 1 1 0 0 0 1 1 2 2 2 2 2 2 2 2 1 1 1 1 1 1 1
9 9 9 9 9 10 11 10 10 9 8 7 6 5 6 5 4 3 2 1 1 1 1 1 1 1 1 1 1 2 2 2 2 2 2 1 1 1 1 1 1 1 1
6 8 8 8 8 8 9 9 9 9 9 7 6 5 5 5 5 4 3 2 2 2 2 1 1 1 1 1 2 2 2 2 2 2 2 2 1 1 2 1 1 1 1
3 6 7 7 7 7 6 8 8 8 8 8 7 6 5 5 4 4 3 3 2 2 2 2 1 1 1 1 2 2 1 1 1 1 2 2 1 2 2 2 2 1 2
4 5 6 6 6 5 5 6 7 7 7 6 7 6 6 5 4 4 3 3 3 2 2 2 1 1 1 1 1 1 1 1 1 1 1 1 2 2 2 2 2 2 2
7 6 6 5 5 5 4 4 5 5 6 6 5 5 5 5 4 4 3 3 2 2 2 2 1 2 2 1 0 1 2 1 1 1 2 2 1 1 1 2 1 2 2
6 7 6 6 5 6 5 5 4 4 5 5 5 5 5 5 4 4 3 3 2 2 2 2 2 2 2 1 1 1 2 2 2 2 2 2 2 0 0 0 1 2 3
4 5 5 4 4 5 5 5 4 4 4 5 4 4 4 4 3 3 3 3 3 2 2 2 2 1 0 1 1 1 2 3 3 3 2 3 2 1 0 1 1 1 2
3 4 4 5 5 6 6 5 5 4 4 4 4 4 3 3 2 2 2 2 2 2 2 2 2 2 1 2 2 1 3 3 3 3 3 2 1 1 1 2 2 2 2
4 5 5 4 5 5 6 5 5 5 4 3 3 3 3 3 3 2 2 2 1 1 2 2 2 1 1 2 2 2 2 2 3 3 2 1 1 0 1 2 2 2 3
5 5 5 6 6 5 5 4 5 5 4 3 3 2 2 3 3 3 2 1 1 1 2 1 1 2 2 3 3 3 2 2 2 2 1 1 2 2 2 2 2 4 3
6 6 6 6 5 4 4 3 3 3 3 3 3 3 2 3 3 2 2 1 2 2 2 2 2 2 2 3 4 3 1 2 3 2 2 1 3 2 3 4 4 5 4
5 6 6 5 4 4 4 3 2 2 3 3 3 3 3 3 3 3 2 2 2 2 3 3 2 2 2 3 4 4 3 3 3 3 2 1 3 5 5 5 5 5 4
4 4 5 5 4 3 3 2 1 2 2 2 2 2 2 2 2 2 2 2 2 2 2 2 2 2 2 2 3 4 4 5 3 3 4 4 5 5 5 6 6 4 3
3 3 3 4 3 3 2 2 2 1 1 2 1 2 2 2 2 1 2 2 1 1 2 2 2 1 1 1 1 1 3 3 3 4 5 4 4 5 5 4 4 5 4
3 2 2 3 3 3 2 2 2 1 0 1 2 3 2 2 2 2 2 2 2 2 3 2 1 2 2 2 3 3 3 3 3 3 3 3 3 3 3 3 4 4 4
2 2 2 2 2 2 2 2 2 1 0 1 2 2 2 2 2 2 2 1 2 3 3 3 2 2 3 4 5 5 5 5 4 2 3 3 3 4 4 4 3 4 4
Wind_Direction
158 154 151 145 139 136 134 135 136 121 117 129 145 145 125 116 113 111 106 93 69 84 49 47 83 111 129 144 145 129 148 158 145 120 104 112 132 138 134 149 129 121 126
157 155 155 153 147 145 144 144 146 139 138 140 136 155 159 149 125 107 120 115 99 87 87 63 69 96 114 116 118 125 135 158 149 143 143 120 98 66 145 151 156 148 135
164 161 162 162 156 152 155 155 147 145 153 158 149 152 139 113 106 126 119 112 102 99 64 74 53 76 94 109 133 123 138 150 158 154 140 136 129 113 92 108 120 121 119
168 167 168 166 162 158 155 147 148 150 156 163 162 164 135 126 132 128 128 137 143 115 102 96 75 81 83 110 159 114 108 131 168 124 60 85 126 145 141 70 85 119 122
169 169 169 167 167 164 159 154 151 155 156 155 156 162 148 152 137 129 137 145 143 142 113 109 111 114 101 104 79 82 235 227 233 195 135 119 118 137 153 160 167 125 136
168 166 163 166 172 167 163 158 152 157 162 166 165 162 164 148 129 135 148 158 144 153 139 140 141 142 136 161 167 187 215 237 273 289 168 155 155 156 150 152 171 160 143
165 165 164 170 171 169 164 156 155 162 169 171 174 171 179 175 176 185 199 178 156 157 160 157 168 174 171 202 187 207 217 219 229 232 228 213 204 151 152 152 165 163 182
165 165 168 171 174 170 163 158 160 166 172 176 176 175 180 195 193 194 211 199 179 163 137 146 181 189 192 207 196 221 207 195 207 231 230 227 216 209 178 173 168 181 203
163 169 170 172 174 171 168 167 165 167 172 174 171 175 184 191 181 190 200 187 163 139 129 163 170 182 204 220 220 223 228 201 210 218 216 220 235 218 211 198 193 189 199
161 161 164 168 169 168 168 170 167 168 172 174 183 180 184 182 181 202 201 165 114 81 122 172 174 197 255 243 234 236 226 213 213 210 214 223 229 223 242 236 220 200 190
163 162 162 161 164 166 166 165 166 166 171 176 181 176 176 181 182 191 190 168 152 154 167 210 229 237 253 257 252 243 239 234 225 220 211 224 235 259 265 270 232 192 187
168 162 159 154 157 159 162 165 166 170 172 172 174 178 176 178 181 186 179 174 177 180 183 192 222 248 260 266 255 248 235 231 230 234 228 228 239 258 282 271 258 227 210
159 156 148 148 149 151 153 160 168 171 172 174 178 179 181 181 182 180 172 174 178 182 184 182 191 235 258 266 272 268 243 236 235 242 242 244 242 247 253 257 256 249 237
164 151 134 137 136 134 139 155 170 169 168 171 179 178 182 180 180 172 166 171 178 179 172 172 192 230 238 235 259 283 266 258 262 259 258 253 246 254 250 243 238 242 233
157 136 129 136 143 143 142 148 163 163 162 165 173 172 176 170 170 167 169 172 184 185 173 188 208 237 234 238 243 272 264 268 277 272 268 270 263 291 277 260 263 252 240
148 144 144 150 156 155 157 155 157 161 154 164 172 164 168 165 169 173 170 169 181 191 186 198 211 241 265 56 58 346 307 278 260 260 261 251 220 197 213 271 306 268 249
132 138 144 147 153 147 139 147 156 153 154 156 153 147 157 161 169 184 167 177 187 193 203 211 219 214 187 158 152 198 270 277 269 263 255 262 264 228 241 268 266 299 275
133 141 143 151 152 148 150 152 153 149 147 147 144 142 146 149 157 182 185 191 202 208 217 219 227 226 192 150 159 217 244 267 265 260 258 254 252 282 249 263 256 261 274
121 119 127 139 134 140 140 144 148 144 141 147 153 165 169 165 173 191 203 194 211 224 230 231 233 235 134 153 184 217 247 253 264 265 272 261 168 219 248 254 258 261 273
104 112 121 114 108 112 124 150 152 148 154 161 165 165 168 180 183 178 187 181 199 228 245 241 229 215 191 191 192 205 256 274 282 265 216 211 205 192 196 237 262 269 269
109 107 100 95 96 106 117 145 151 153 152 154 155 157 166 189 182 156 166 183 208 218 239 242 235 222 193 171 175 186 247 291 297 288 269 209 187 208 231 247 252 257 270
97 105 104 100 96 109 126 143 145 140 144 153 158 161 171 212 181 158 181 199 214 226 234 238 241 216 177 167 181 196 224 265 283 287 297 285 236 241 248 251 254 251 258
95 106 112 114 116 122 129 138 118 114 132 141 152 168 182 208 176 174 191 207 212 233 238 231 240 228 172 160 176 205 242 261 269 291 298 288 263 254 251 246 244 235 245
99 106 122 134 132 121 113 101 80 90 156 172 173 192 197 200 171 187 197 210 226 240 274 269 263 253 191 156 159 241 253 264 266 284 290 274 257 255 253 245 236 231 238
96 101 104 111 114 110 108 114 102 96 115 214 209 217 213 204 189 203 220 211 217 206 218 256 267 262 261 230 213 222 241 255 266 275 270 264 253 251 252 241 235 234 234
89 91 92 106 102 107 115 118 120 117 205 244 245 240 226 208 216 214 227 237 219 184 194 214 239 260 246 222 215 224 234 242 241 244 264 268 262 254 253 250 245 244 243